Terug naar catalogus

COSMOS 627 DEB

ActiefPO
NORAD 45504·DEBRIS·🇷🇺 Russia

Gelanceerd Dec 29, 1973 vanaf Plesetsk Cosmodrome

Loading…

Volgende Passages (komende 24 uur)

TLE

VersSource: Space-Track

Epoch: Sep 13, 2026, 17:15 UTC

1 45504U 73109C   26256.71927586  .00000148  00000-0  13997-3 0  9999
2 45504  82.9514  52.8184 0032549  78.4866 281.9942 13.74439094636036

Volg COSMOS 627 DEB in realtime met AllMySat

Download on the App Store